TimeICT,TemperatureF,Dew PointF,Humidity,Sea Level PressureIn,VisibilityMPH,Wind Direction,Wind SpeedMPH,Gust SpeedMPH,PrecipitationIn,Events,Conditions,WindDirDegrees,DateUTC
1:00 AM,78,72,78,29.79,6,Calm,Calm,,,,Clear,,2012-11-07 18:00:00
4:00 AM,75.2,73.4,94,29.80,-9999.0,Calm,Calm,-,N/A,,Clear,0,2012-11-07 21:00:00
6:00 AM,75.2,73.4,94,29.83,-9999.0,Variable,1.2,-,N/A,,Clear,0,2012-11-07 23:00:00
7:00 AM,76,74,91,29.83,6,East,3.5,,,,Clear,90,2012-11-08 00:00:00
7:00 AM,77.0,73.4,89,29.86,-9999.0,Variable,1.2,-,N/A,,Clear,0,2012-11-08 00:00:00
8:00 AM,80.6,75.2,84,29.86,-9999.0,Variable,2.3,-,N/A,,Clear,0,2012-11-08 01:00:00
9:00 AM,84.2,77.0,79,29.86,5.6,East,3.5,-,N/A,,Unknown,80,2012-11-08 02:00:00
10:00 AM,87.8,77.0,70,29.86,6.2,Calm,Calm,-,N/A,,Partly Cloudy,0,2012-11-08 03:00:00
11:00 AM,89.6,75.2,62,29.86,6.2,Variable,2.3,-,N/A,,Scattered Clouds,0,2012-11-08 04:00:00
12:00 PM,91.4,75.2,59,29.83,6.2,Variable,4.6,-,N/A,,Scattered Clouds,0,2012-11-08 05:00:00
1:00 PM,93,71,38,29.76,6,South,3.5,,,,Mostly Cloudy,190,2012-11-08 06:00:00
1:00 PM,91.4,73.4,55,29.77,6.2,South,3.5,-,N/A,,Mostly Cloudy,190,2012-11-08 06:00:00
2:00 PM,93.2,73.4,52,29.74,6.2,ENE,3.5,-,N/A,,Mostly Cloudy,70,2012-11-08 07:00:00
3:00 PM,93.2,73.4,52,29.74,6.2,Variable,2.3,-,N/A,,Scattered Clouds,0,2012-11-08 08:00:00
4:00 PM,95.0,73.4,49,29.71,6.2,Calm,Calm,-,N/A,,Scattered Clouds,0,2012-11-08 09:00:00
5:00 PM,93.2,73.4,52,29.71,6.2,Calm,Calm,-,N/A,,Scattered Clouds,0,2012-11-08 10:00:00
6:00 PM,86.0,75.2,70,29.74,6.2,Variable,2.3,-,N/A,,Scattered Clouds,0,2012-11-08 11:00:00
7:00 PM,86,72,55,29.73,6,East,2.3,,,,Scattered Clouds,90,2012-11-08 12:00:00
7:00 PM,86.0,75.2,70,29.74,6.2,East,2.3,-,N/A,,Partly Cloudy,80,2012-11-08 12:00:00
8:00 PM,82.4,75.2,79,29.77,6.2,Calm,Calm,-,N/A,,Partly Cloudy,0,2012-11-08 13:00:00